Location: Asti
(44.9000°N, 8.2000°E)
Time: 04:04:12
(UTC+01:00)

ISS - Visible Passes

Search period start: 23 January 2019 00:00
Search period end: 02 February 2019 00:00
Orbit: 404 x 411 km, 51.6° (Epoch: 23 January)

Date Brightness Start Highest point End Pass type
(mag) Time Alt. Az. Time Alt. Az. Time Alt. Az.
23 Jan -2.6 18:37:15 10° SSW 18:40:06 27° SE 18:41:04 23° ESE visible
23 Jan -0.5 20:13:17 10° W 20:13:48 14° W 20:13:48 14° W visible
24 Jan -3.5 19:21:49 10° WSW 19:24:46 67° W 19:24:46 67° W visible
25 Jan -3.7 18:30:30 10° SW 18:33:46 62° SE 18:35:40 22° ENE visible
25 Jan -0.8 20:07:27 10° W 20:08:24 16° WNW 20:08:24 16° WNW visible
26 Jan -3.1 19:15:49 10° W 19:18:59 43° NNW 19:19:13 42° N visible
27 Jan -3.5 18:24:15 10° WSW 18:27:31 63° NNW 18:30:00 16° NE visible
27 Jan -1.0 20:01:39 10° WNW 20:02:43 17° NW 20:02:43 17° NW visible
28 Jan -2.5 19:09:57 10° WNW 19:12:55 29° NNW 19:13:26 28° N visible
29 Jan -2.8 18:18:15 10° W 18:21:21 37° NNW 18:24:08 12° NE visible
29 Jan -1.2 19:55:42 10° NW 19:56:51 17° NW 19:56:51 17° NW visible
30 Jan -2.3 19:04:03 10° WNW 19:06:51 25° N 19:07:31 23° NNE visible
31 Jan -2.3 18:12:20 10° WNW 18:15:14 27° N 18:18:08 10° NE visible
31 Jan -1.5 19:49:30 10° NW 19:50:54 19° NNW 19:50:54 19° NNW visible
01 Feb -2.3 18:57:58 10° NW 19:00:47 25° N 19:01:34 22° NNE visible
